contact:dominique.lefevre@mio.osupytheas.fr, maurice.libes@osupytheas.fr, didier.mallarino@osupytheas.fr
Project:EMSO http://www.emso-fr.org/EMSO-France
Depth: 2436.0 m
Title:EMSO Ligure Ouest : Data MII capteur CSTAR
DateTime,Latitude,Longitude,Instrument_Serial,Reference_Counts,Signal_Counts,Corrected_Signal_raw_counts,Calculated_Beam_c_inverse_meters,Internal_thermistor_counts
DateTime,Latitude,Longitude,Instrument_Serial,Reference_Counts,Signal_Counts,Corrected_Signal_raw_counts,Calculated_Beam_c_inverse_meters,Internal_thermistor_counts
2023-01-27T00:01:56,42.805,6.029,CST-1368DR,4406,4911,11846,01.105,551
2023-01-27T00:04:57,42.805,6.029,CST-1368DR,4406,4912,11847,01.105,551
2023-01-27T00:07:59,42.805,6.029,CST-1368DR,4406,4912,11847,01.105,551
2023-01-27T00:11:00,42.805,6.029,CST-1368DR,4406,4912,11847,01.105,551
2023-01-27T00:14:02,42.805,6.029,CST-1368DR,4406,4911,11846,01.105,551
2023-01-27T00:17:04,42.805,6.029,CST-1368DR,4406,4911,11846,01.105,551
2023-01-27T00:20:05,42.805,6.029,CST-1368DR,4406,4912,11847,01.105,551
2023-01-27T00:23:07,42.805,6.029,CST-1368DR,4406,4912,11847,01.105,551
2023-01-27T00:26:08,42.805,6.029,CST-1368DR,4406,4913,11849,01.104,551
2023-01-27T00:29:10,42.805,6.029,CST-1368DR,4406,4914,11852,01.103,551
2023-01-27T00:32:12,42.805,6.029,CST-1368DR,4406,4913,11850,01.104,551
2023-01-27T00:35:13,42.805,6.029,CST-1368DR,4406,4913,11849,01.104,551
2023-01-27T00:38:15,42.805,6.029,CST-1368DR,4406,4913,11850,01.104,551
2023-01-27T00:41:16,42.805,6.029,CST-1368DR,4406,4913,11850,01.104,551
2023-01-27T00:44:18,42.805,6.029,CST-1368DR,4406,4910,11842,01.107,551
2023-01-27T00:47:20,42.805,6.029,CST-1368DR,4406,4912,11849,01.104,551
2023-01-27T00:50:21,42.805,6.029,CST-1368DR,4406,4913,11849,01.104,551
2023-01-27T00:53:23,42.805,6.029,CST-1368DR,4406,4912,11847,01.105,551
2023-01-27T00:56:24,42.805,6.029,CST-1368DR,4406,4913,11850,01.104,551
2023-01-27T00:59:26,42.805,6.029,CST-1368DR,4406,4911,11846,01.105,551
2023-01-27T01:02:27,42.805,6.029,CST-1368DR,4406,4912,11847,01.105,551
2023-01-27T01:05:29,42.805,6.029,CST-1368DR,4406,4912,11849,01.104,551
2023-01-27T01:08:31,42.805,6.029,CST-1368DR,4405,4912,11851,01.104,551
2023-01-27T01:11:32,42.805,6.029,CST-1368DR,4406,4913,11850,01.104,551
2023-01-27T01:14:34,42.805,6.029,CST-1368DR,4406,4912,11847,01.105,551
2023-01-27T01:17:35,42.805,6.029,CST-1368DR,4406,4913,11850,01.104,551
2023-01-27T01:20:37,42.805,6.029,CST-1368DR,4406,4912,11847,01.105,551
2023-01-27T01:23:39,42.805,6.029,CST-1368DR,4406,4912,11847,01.105,551
2023-01-27T01:26:40,42.805,6.029,CST-1368DR,4406,4909,11840,01.107,551
2023-01-27T01:29:42,42.805,6.029,CST-1368DR,4405,4911,11849,01.104,551
2023-01-27T01:32:43,42.805,6.029,CST-1368DR,4406,4914,11852,01.103,551
2023-01-27T01:35:45,42.805,6.029,CST-1368DR,4406,4912,11847,01.105,551
2023-01-27T01:38:46,42.805,6.029,CST-1368DR,4406,4913,11850,01.104,551
2023-01-27T01:41:48,42.805,6.029,CST-1368DR,4406,4912,11847,01.105,551
2023-01-27T01:44:50,42.805,6.029,CST-1368DR,4406,4912,11847,01.105,551
2023-01-27T01:47:51,42.805,6.029,CST-1368DR,4406,4912,11849,01.104,551
2023-01-27T01:50:53,42.805,6.029,CST-1368DR,4405,4912,11850,01.104,551
2023-01-27T01:53:54,42.805,6.029,CST-1368DR,4406,4913,11849,01.104,551
2023-01-27T01:56:56,42.805,6.029,CST-1368DR,4406,4912,11847,01.105,551
2023-01-27T01:59:58,42.805,6.029,CST-1368DR,4406,4912,11848,01.105,551
2023-01-27T02:02:59,42.805,6.029,CST-1368DR,4405,4910,11846,01.105,551
2023-01-27T02:06:01,42.805,6.029,CST-1368DR,4405,4913,11852,01.103,551
2023-01-27T02:09:02,42.805,6.029,CST-1368DR,4405,4913,11852,01.103,551
2023-01-27T02:12:04,42.805,6.029,CST-1368DR,4405,4912,11850,01.104,551
2023-01-27T02:15:05,42.805,6.029,CST-1368DR,4405,4912,11850,01.104,551
2023-01-27T02:18:07,42.805,6.029,CST-1368DR,4405,4912,11849,01.104,551
2023-01-27T02:21:09,42.805,6.029,CST-1368DR,4406,4911,11846,01.105,551
2023-01-27T02:24:10,42.805,6.029,CST-1368DR,4405,4913,11852,01.103,551
2023-01-27T02:27:12,42.805,6.029,CST-1368DR,4405,4912,11849,01.104,551
2023-01-27T02:30:13,42.805,6.029,CST-1368DR,4405,4912,11849,01.104,551
2023-01-27T02:33:15,42.805,6.029,CST-1368DR,4405,4910,11845,01.106,551
2023-01-27T02:36:17,42.805,6.029,CST-1368DR,4405,4911,11847,01.105,551
2023-01-27T02:39:18,42.805,6.029,CST-1368DR,4406,4912,11847,01.105,551
2023-01-27T02:42:20,42.805,6.029,CST-1368DR,4405,4912,11851,01.104,551
2023-01-27T02:45:21,42.805,6.029,CST-1368DR,4405,4911,11848,01.105,551
2023-01-27T02:48:23,42.805,6.029,CST-1368DR,4405,4912,11851,01.104,551
2023-01-27T02:51:24,42.805,6.029,CST-1368DR,4405,4905,11834,01.109,551
2023-01-27T02:54:26,42.805,6.029,CST-1368DR,4405,4906,11836,01.109,551
2023-01-27T02:57:28,42.805,6.029,CST-1368DR,4405,4906,11836,01.109,551
2023-01-27T03:00:29,42.805,6.029,CST-1368DR,4405,4906,11836,01.109,551
2023-01-27T03:03:31,42.805,6.029,CST-1368DR,4405,4909,11843,01.106,551
2023-01-27T03:06:32,42.805,6.029,CST-1368DR,4405,4912,11850,01.104,551
2023-01-27T03:09:34,42.805,6.029,CST-1368DR,4406,4912,11847,01.105,551
2023-01-27T03:12:36,42.805,6.029,CST-1368DR,4405,4912,11851,01.104,551
2023-01-27T03:15:37,42.805,6.029,CST-1368DR,4405,4912,11851,01.104,551
2023-01-27T03:18:39,42.805,6.029,CST-1368DR,4405,4913,11852,01.103,551
2023-01-27T03:21:40,42.805,6.029,CST-1368DR,4405,4912,11850,01.104,551
2023-01-27T03:24:42,42.805,6.029,CST-1368DR,4405,4913,11852,01.103,551
2023-01-27T03:27:43,42.805,6.029,CST-1368DR,4405,4913,11852,01.103,551
2023-01-27T03:30:45,42.805,6.029,CST-1368DR,4405,4912,11849,01.104,551
2023-01-27T03:33:47,42.805,6.029,CST-1368DR,4405,4913,11852,01.103,551
2023-01-27T03:36:48,42.805,6.029,CST-1368DR,4405,4913,11852,01.103,551
2023-01-27T03:39:50,42.805,6.029,CST-1368DR,4405,4913,11852,01.103,551
2023-01-27T03:42:51,42.805,6.029,CST-1368DR,4405,4912,11851,01.104,551
2023-01-27T03:45:53,42.805,6.029,CST-1368DR,4405,4911,11849,01.104,551
2023-01-27T03:48:55,42.805,6.029,CST-1368DR,4405,4914,11854,01.103,551
2023-01-27T03:51:56,42.805,6.029,CST-1368DR,4405,4912,11851,01.104,551
2023-01-27T03:54:58,42.805,6.029,CST-1368DR,4405,4913,11852,01.103,551
2023-01-27T03:57:59,42.805,6.029,CST-1368DR,4405,4914,11854,01.103,551
2023-01-27T04:01:01,42.805,6.029,CST-1368DR,4405,4914,11855,01.102,551
2023-01-27T04:04:02,42.805,6.029,CST-1368DR,4405,4913,11853,01.103,551
2023-01-27T04:07:04,42.805,6.029,CST-1368DR,4405,4913,11852,01.103,551
2023-01-27T04:10:06,42.805,6.029,CST-1368DR,4405,4914,11854,01.103,551
2023-01-27T04:13:07,42.805,6.029,CST-1368DR,4405,4914,11855,01.102,551
2023-01-27T04:16:09,42.805,6.029,CST-1368DR,4405,4913,11853,01.103,551
2023-01-27T04:19:10,42.805,6.029,CST-1368DR,4405,4913,11853,01.103,551
2023-01-27T04:22:12,42.805,6.029,CST-1368DR,4405,4914,11855,01.102,551
2023-01-27T04:25:14,42.805,6.029,CST-1368DR,4405,4913,11853,01.103,551
2023-01-27T04:28:15,42.805,6.029,CST-1368DR,4405,4914,11855,01.102,551
2023-01-27T04:31:17,42.805,6.029,CST-1368DR,4405,4911,11849,01.104,551
2023-01-27T04:34:18,42.805,6.029,CST-1368DR,4405,4914,11855,01.102,551
2023-01-27T04:37:20,42.805,6.029,CST-1368DR,4405,4914,11855,01.102,551
2023-01-27T04:40:21,42.805,6.029,CST-1368DR,4405,4915,11857,01.102,551
2023-01-27T04:43:23,42.805,6.029,CST-1368DR,4405,4912,11851,01.104,551
2023-01-27T04:46:25,42.805,6.029,CST-1368DR,4405,4911,11847,01.105,551
2023-01-27T04:49:26,42.805,6.029,CST-1368DR,4405,4913,11852,01.103,551
2023-01-27T04:52:28,42.805,6.029,CST-1368DR,4405,4912,11851,01.104,551
2023-01-27T04:55:29,42.805,6.029,CST-1368DR,4405,4913,11853,01.103,551
2023-01-27T04:58:31,42.805,6.029,CST-1368DR,4405,4914,11855,01.102,551
2023-01-27T05:01:33,42.805,6.029,CST-1368DR,4405,4912,11851,01.104,551
2023-01-27T05:04:34,42.805,6.029,CST-1368DR,4405,4912,11851,01.104,551
2023-01-27T05:07:36,42.805,6.029,CST-1368DR,4405,4910,11846,01.105,551
2023-01-27T05:10:37,42.805,6.029,CST-1368DR,4405,4912,11851,01.104,551
2023-01-27T05:13:39,42.805,6.029,CST-1368DR,4405,4914,11856,01.102,551
2023-01-27T05:16:40,42.805,6.029,CST-1368DR,4405,4912,11849,01.104,551
2023-01-27T05:19:42,42.805,6.029,CST-1368DR,4405,4914,11854,01.103,551
2023-01-27T05:22:44,42.805,6.029,CST-1368DR,4405,4913,11852,01.103,551
2023-01-27T05:25:45,42.805,6.029,CST-1368DR,4405,4912,11851,01.104,551
2023-01-27T05:28:47,42.805,6.029,CST-1368DR,4405,4914,11856,01.102,551
2023-01-27T05:31:48,42.805,6.029,CST-1368DR,4405,4914,11856,01.102,551
2023-01-27T05:34:50,42.805,6.029,CST-1368DR,4405,4913,11853,01.103,551
2023-01-27T05:37:52,42.805,6.029,CST-1368DR,4405,4912,11850,01.104,551
2023-01-27T05:40:53,42.805,6.029,CST-1368DR,4405,4913,11853,01.103,551
2023-01-27T05:43:55,42.805,6.029,CST-1368DR,4405,4911,11847,01.105,551
2023-01-27T05:46:56,42.805,6.029,CST-1368DR,4405,4913,11852,01.103,551
2023-01-27T05:49:58,42.805,6.029,CST-1368DR,4405,4912,11851,01.104,551
2023-01-27T05:52:59,42.805,6.029,CST-1368DR,4405,4913,11853,01.103,551
2023-01-27T05:56:01,42.805,6.029,CST-1368DR,4405,4912,11851,01.104,551
2023-01-27T05:59:03,42.805,6.029,CST-1368DR,4405,4914,11856,01.102,551
2023-01-27T06:02:04,42.805,6.029,CST-1368DR,4405,4914,11855,01.102,551
2023-01-27T06:05:06,42.805,6.029,CST-1368DR,4405,4911,11848,01.105,551
2023-01-27T06:08:07,42.805,6.029,CST-1368DR,4405,4914,11854,01.103,551
2023-01-27T06:11:09,42.805,6.029,CST-1368DR,4405,4914,11855,01.102,551
2023-01-27T06:14:11,42.805,6.029,CST-1368DR,4405,4912,11851,01.104,551
2023-01-27T06:17:12,42.805,6.029,CST-1368DR,4405,4914,11854,01.103,551
2023-01-27T06:20:14,42.805,6.029,CST-1368DR,4405,4914,11855,01.102,551
2023-01-27T06:23:15,42.805,6.029,CST-1368DR,4405,4914,11855,01.102,551
2023-01-27T06:26:17,42.805,6.029,CST-1368DR,4405,4915,11857,01.102,551
2023-01-27T06:29:18,42.805,6.029,CST-1368DR,4405,4913,11852,01.103,551
2023-01-27T06:32:20,42.805,6.029,CST-1368DR,4405,4914,11855,01.102,551
2023-01-27T06:35:22,42.805,6.029,CST-1368DR,4405,4913,11852,01.103,551
2023-01-27T06:38:23,42.805,6.029,CST-1368DR,4405,4914,11855,01.102,551
2023-01-27T06:41:25,42.805,6.029,CST-1368DR,4405,4914,11856,01.102,551
2023-01-27T06:44:26,42.805,6.029,CST-1368DR,4405,4915,11857,01.102,551
2023-01-27T06:47:28,42.805,6.029,CST-1368DR,4405,4914,11854,01.103,551
2023-01-27T06:50:30,42.805,6.029,CST-1368DR,4405,4913,11852,01.103,551
2023-01-27T06:53:31,42.805,6.029,CST-1368DR,4405,4912,11851,01.104,551
2023-01-27T06:56:33,42.805,6.029,CST-1368DR,4405,4913,11852,01.103,551
2023-01-27T06:59:34,42.805,6.029,CST-1368DR,4405,4913,11853,01.103,551
2023-01-27T07:02:36,42.805,6.029,CST-1368DR,4405,4914,11854,01.103,551
2023-01-27T07:05:37,42.805,6.029,CST-1368DR,4405,4914,11854,01.103,551
2023-01-27T07:08:39,42.805,6.029,CST-1368DR,4405,4913,11853,01.103,551
2023-01-27T07:11:41,42.805,6.029,CST-1368DR,4405,4911,11849,01.104,551
2023-01-27T07:14:42,42.805,6.029,CST-1368DR,4405,4914,11855,01.102,551
2023-01-27T07:17:44,42.805,6.029,CST-1368DR,4405,4913,11853,01.103,551
2023-01-27T07:20:45,42.805,6.029,CST-1368DR,4405,4914,11854,01.103,551
2023-01-27T07:23:47,42.805,6.029,CST-1368DR,4405,4912,11851,01.104,551
2023-01-27T07:26:49,42.805,6.029,CST-1368DR,4405,4908,11841,01.107,551
2023-01-27T07:29:50,42.805,6.029,CST-1368DR,4405,4908,11842,01.107,551
2023-01-27T07:32:52,42.805,6.029,CST-1368DR,4405,4912,11850,01.104,551
2023-01-27T07:35:53,42.805,6.029,CST-1368DR,4405,4912,11851,01.104,551
2023-01-27T07:38:55,42.805,6.029,CST-1368DR,4405,4912,11850,01.104,551
2023-01-27T07:41:56,42.805,6.029,CST-1368DR,4405,4907,11839,01.108,551
2023-01-27T07:44:58,42.805,6.029,CST-1368DR,4405,4909,11844,01.106,551
2023-01-27T07:48:00,42.805,6.029,CST-1368DR,4405,4911,11849,01.104,551
2023-01-27T07:51:01,42.805,6.029,CST-1368DR,4405,4911,11848,01.105,551
2023-01-27T07:54:03,42.805,6.029,CST-1368DR,4405,4914,11854,01.103,551
2023-01-27T07:57:04,42.805,6.029,CST-1368DR,4405,4913,11853,01.103,551
2023-01-27T08:00:06,42.805,6.029,CST-1368DR,4405,4914,11855,01.102,551
2023-01-27T08:03:08,42.805,6.029,CST-1368DR,4405,4907,11839,01.108,551
2023-01-27T08:06:09,42.805,6.029,CST-1368DR,4405,4914,11855,01.102,551
2023-01-27T08:09:11,42.805,6.029,CST-1368DR,4405,4913,11852,01.103,551
2023-01-27T08:12:12,42.805,6.029,CST-1368DR,4405,4914,11854,01.103,551
2023-01-27T08:15:14,42.805,6.029,CST-1368DR,4405,4911,11848,01.105,551
2023-01-27T08:18:15,42.805,6.029,CST-1368DR,4405,4913,11853,01.103,551
2023-01-27T08:21:17,42.805,6.029,CST-1368DR,4405,4914,11854,01.103,551
2023-01-27T08:24:19,42.805,6.029,CST-1368DR,4405,4912,11850,01.104,551
2023-01-27T08:27:20,42.805,6.029,CST-1368DR,4405,4914,11854,01.103,551
2023-01-27T08:30:22,42.805,6.029,CST-1368DR,4405,4913,11852,01.103,551
2023-01-27T08:33:23,42.805,6.029,CST-1368DR,4405,4912,11851,01.104,551
2023-01-27T08:36:25,42.805,6.029,CST-1368DR,4405,4912,11850,01.104,551
2023-01-27T08:39:27,42.805,6.029,CST-1368DR,4405,4916,11859,01.101,551
2023-01-27T08:42:28,42.805,6.029,CST-1368DR,4405,4914,11856,01.102,551
2023-01-27T08:45:30,42.805,6.029,CST-1368DR,4405,4913,11853,01.103,551
2023-01-27T08:48:31,42.805,6.029,CST-1368DR,4405,4915,11857,01.102,551
2023-01-27T08:51:33,42.805,6.029,CST-1368DR,4405,4916,11860,01.100,551
2023-01-27T08:54:34,42.805,6.029,CST-1368DR,4405,4916,11859,01.101,551
2023-01-27T08:57:36,42.805,6.029,CST-1368DR,4405,4915,11858,01.101,551
2023-01-27T09:00:38,42.805,6.029,CST-1368DR,4405,4916,11860,01.100,551
2023-01-27T09:03:39,42.805,6.029,CST-1368DR,4405,4915,11857,01.102,551
2023-01-27T09:06:41,42.805,6.029,CST-1368DR,4405,4916,11859,01.101,551
2023-01-27T09:09:42,42.805,6.029,CST-1368DR,4405,4915,11858,01.101,551
2023-01-27T09:12:44,42.805,6.029,CST-1368DR,4405,4917,11861,01.100,551
2023-01-27T09:15:46,42.805,6.029,CST-1368DR,4405,4915,11857,01.102,551
2023-01-27T09:18:47,42.805,6.029,CST-1368DR,4405,4916,11859,01.101,551
2023-01-27T09:21:49,42.805,6.029,CST-1368DR,4405,4916,11860,01.100,551
2023-01-27T09:24:50,42.805,6.029,CST-1368DR,4405,4917,11863,01.099,551
2023-01-27T09:27:52,42.805,6.029,CST-1368DR,4405,4916,11859,01.101,551
2023-01-27T09:30:53,42.805,6.029,CST-1368DR,4405,4916,11859,01.101,551
2023-01-27T09:33:55,42.805,6.029,CST-1368DR,4405,4915,11858,01.101,551
2023-01-27T09:36:57,42.805,6.029,CST-1368DR,4405,4916,11859,01.101,551
2023-01-27T09:39:58,42.805,6.029,CST-1368DR,4405,4917,11861,01.100,551
2023-01-27T09:43:00,42.805,6.029,CST-1368DR,4405,4915,11857,01.102,551
2023-01-27T09:46:01,42.805,6.029,CST-1368DR,4405,4914,11855,01.102,551
2023-01-27T09:49:03,42.805,6.029,CST-1368DR,4405,4915,11857,01.102,551
2023-01-27T09:52:05,42.805,6.029,CST-1368DR,4405,4905,11832,01.110,551
2023-01-27T09:55:06,42.805,6.029,CST-1368DR,4405,4913,11852,01.103,551
2023-01-27T09:58:08,42.805,6.029,CST-1368DR,4405,4915,11857,01.102,551
2023-01-27T10:01:09,42.805,6.029,CST-1368DR,4405,4916,11859,01.101,551
2023-01-27T10:04:11,42.805,6.029,CST-1368DR,4405,4915,11858,01.101,551
2023-01-27T10:07:13,42.805,6.029,CST-1368DR,4405,4915,11858,01.101,551
2023-01-27T10:10:14,42.805,6.029,CST-1368DR,4405,4915,11857,01.102,551
2023-01-27T10:13:16,42.805,6.029,CST-1368DR,4405,4916,11861,01.100,551
2023-01-27T10:16:17,42.805,6.029,CST-1368DR,4405,4916,11859,01.101,551
2023-01-27T10:19:19,42.805,6.029,CST-1368DR,4405,4914,11855,01.102,551
2023-01-27T10:22:20,42.805,6.029,CST-1368DR,4405,4915,11858,01.101,551
2023-01-27T10:25:22,42.805,6.029,CST-1368DR,4405,4916,11860,01.100,551
2023-01-27T10:28:24,42.805,6.029,CST-1368DR,4405,4914,11856,01.102,551
2023-01-27T10:31:25,42.805,6.029,CST-1368DR,4405,4916,11859,01.101,551
2023-01-27T10:34:27,42.805,6.029,CST-1368DR,4405,4916,11861,01.100,551
2023-01-27T10:37:28,42.805,6.029,CST-1368DR,4405,4915,11858,01.101,551
2023-01-27T10:40:30,42.805,6.029,CST-1368DR,4405,4915,11858,01.101,551
2023-01-27T10:43:32,42.805,6.029,CST-1368DR,4405,4916,11859,01.101,551
2023-01-27T10:46:33,42.805,6.029,CST-1368DR,4405,4914,11856,01.102,551
2023-01-27T10:49:35,42.805,6.029,CST-1368DR,4405,4914,11855,01.102,551
2023-01-27T10:52:36,42.805,6.029,CST-1368DR,4405,4915,11857,01.102,551
2023-01-27T10:55:38,42.805,6.029,CST-1368DR,4405,4915,11858,01.101,551
2023-01-27T10:58:39,42.805,6.029,CST-1368DR,4405,4915,11857,01.102,551
2023-01-27T11:01:41,42.805,6.029,CST-1368DR,4405,4915,11858,01.101,551
2023-01-27T11:04:43,42.805,6.029,CST-1368DR,4405,4914,11856,01.102,551
2023-01-27T11:07:44,42.805,6.029,CST-1368DR,4405,4912,11851,01.104,551
2023-01-27T11:10:46,42.805,6.029,CST-1368DR,4405,4911,11849,01.104,551
2023-01-27T11:13:47,42.805,6.029,CST-1368DR,4405,4911,11849,01.104,551
2023-01-27T11:16:49,42.805,6.029,CST-1368DR,4405,4912,11850,01.104,551
2023-01-27T11:19:51,42.805,6.029,CST-1368DR,4405,4912,11850,01.104,551
2023-01-27T11:22:52,42.805,6.029,CST-1368DR,4405,4911,11848,01.105,551
2023-01-27T11:25:54,42.805,6.029,CST-1368DR,4405,4912,11849,01.104,551
2023-01-27T11:28:55,42.805,6.029,CST-1368DR,4405,4912,11851,01.104,551
2023-01-27T11:31:57,42.805,6.029,CST-1368DR,4405,4912,11851,01.104,551
2023-01-27T11:34:58,42.805,6.029,CST-1368DR,4405,4910,11846,01.105,551
2023-01-27T11:38:00,42.805,6.029,CST-1368DR,4405,4912,11850,01.104,551
2023-01-27T11:41:02,42.805,6.029,CST-1368DR,4405,4911,11849,01.104,551
2023-01-27T11:44:03,42.805,6.029,CST-1368DR,4405,4909,11842,01.107,551
2023-01-27T11:47:05,42.805,6.029,CST-1368DR,4405,4912,11849,01.104,551
2023-01-27T11:50:06,42.805,6.029,CST-1368DR,4405,4912,11851,01.104,551
2023-01-27T11:53:08,42.805,6.029,CST-1368DR,4405,4912,11849,01.104,551
2023-01-27T11:56:10,42.805,6.029,CST-1368DR,4405,4900,11822,01.113,551
2023-01-27T11:59:11,42.805,6.029,CST-1368DR,4405,4911,11847,01.105,551
2023-01-27T12:02:13,42.805,6.029,CST-1368DR,4405,4911,11848,01.105,551
2023-01-27T12:05:14,42.805,6.029,CST-1368DR,4405,4910,11846,01.105,551
2023-01-27T12:08:16,42.805,6.029,CST-1368DR,4405,4912,11851,01.104,551
2023-01-27T12:11:18,42.805,6.029,CST-1368DR,4405,4912,11851,01.104,551
2023-01-27T12:14:19,42.805,6.029,CST-1368DR,4405,4911,11848,01.105,551
2023-01-27T12:17:21,42.805,6.029,CST-1368DR,4405,4913,11852,01.103,551
2023-01-27T12:20:22,42.805,6.029,CST-1368DR,4405,4912,11849,01.104,551
2023-01-27T12:23:24,42.805,6.029,CST-1368DR,4405,4912,11851,01.104,551
2023-01-27T12:26:25,42.805,6.029,CST-1368DR,4405,4910,11846,01.105,551
2023-01-27T12:29:27,42.805,6.029,CST-1368DR,4405,4912,11850,01.104,551
2023-01-27T12:32:29,42.805,6.029,CST-1368DR,4405,4912,11851,01.104,551
2023-01-27T12:35:30,42.805,6.029,CST-1368DR,4405,4913,11853,01.103,551
2023-01-27T12:38:32,42.805,6.029,CST-1368DR,4405,4912,11851,01.104,551
2023-01-27T12:41:33,42.805,6.029,CST-1368DR,4405,4913,11852,01.103,551
2023-01-27T12:44:35,42.805,6.029,CST-1368DR,4405,4912,11849,01.104,551
2023-01-27T12:47:37,42.805,6.029,CST-1368DR,4405,4912,11851,01.104,551
2023-01-27T12:50:38,42.805,6.029,CST-1368DR,4405,4910,11845,01.106,551
2023-01-27T12:53:40,42.805,6.029,CST-1368DR,4405,4913,11852,01.103,551
2023-01-27T12:56:41,42.805,6.029,CST-1368DR,4405,4912,11850,01.104,551
2023-01-27T12:59:43,42.805,6.029,CST-1368DR,4405,4913,11852,01.103,551
2023-01-27T13:02:44,42.805,6.029,CST-1368DR,4405,4913,11853,01.103,551
2023-01-27T13:05:46,42.805,6.029,CST-1368DR,4405,4913,11852,01.103,551
2023-01-27T13:08:48,42.805,6.029,CST-1368DR,4404,4912,11854,01.103,551
2023-01-27T13:11:49,42.805,6.029,CST-1368DR,4405,4912,11850,01.104,551
2023-01-27T13:14:51,42.805,6.029,CST-1368DR,4405,4912,11850,01.104,551
2023-01-27T13:17:52,42.805,6.029,CST-1368DR,4405,4911,11847,01.105,551
2023-01-27T13:20:54,42.805,6.029,CST-1368DR,4405,4912,11851,01.104,551
2023-01-27T13:23:56,42.805,6.029,CST-1368DR,4405,4912,11849,01.104,551
2023-01-27T13:26:57,42.805,6.029,CST-1368DR,4405,4910,11846,01.105,551
2023-01-27T13:29:59,42.805,6.029,CST-1368DR,4405,4913,11852,01.103,551
2023-01-27T13:33:00,42.805,6.029,CST-1368DR,4405,4913,11852,01.103,551
2023-01-27T13:36:02,42.805,6.029,CST-1368DR,4405,4914,11854,01.103,551
2023-01-27T13:39:04,42.805,6.029,CST-1368DR,4405,4912,11850,01.104,551
2023-01-27T13:42:05,42.805,6.029,CST-1368DR,4405,4912,11851,01.104,551
2023-01-27T13:45:07,42.805,6.029,CST-1368DR,4405,4912,11851,01.104,551
2023-01-27T13:48:08,42.805,6.029,CST-1368DR,4405,4913,11852,01.103,551
2023-01-27T13:51:10,42.805,6.029,CST-1368DR,4405,4913,11852,01.103,551
2023-01-27T13:54:11,42.805,6.029,CST-1368DR,4405,4909,11844,01.106,551
2023-01-27T13:57:13,42.805,6.029,CST-1368DR,4405,4913,11852,01.103,551
2023-01-27T14:00:15,42.805,6.029,CST-1368DR,4405,4912,11851,01.104,551
2023-01-27T14:03:16,42.805,6.029,CST-1368DR,4405,4913,11852,01.103,551
2023-01-27T14:06:18,42.805,6.029,CST-1368DR,4405,4912,11851,01.104,551
2023-01-27T14:09:19,42.805,6.029,CST-1368DR,4405,4911,11848,01.105,551
2023-01-27T14:12:21,42.805,6.029,CST-1368DR,4405,4912,11851,01.104,551
2023-01-27T14:15:23,42.805,6.029,CST-1368DR,4405,4912,11850,01.104,551
2023-01-27T14:18:24,42.805,6.029,CST-1368DR,4405,4912,11851,01.104,551
2023-01-27T14:21:26,42.805,6.029,CST-1368DR,4405,4912,11850,01.104,551
2023-01-27T14:24:27,42.805,6.029,CST-1368DR,4405,4912,11851,01.104,551
2023-01-27T14:27:29,42.805,6.029,CST-1368DR,4405,4911,11849,01.104,551
2023-01-27T14:30:30,42.805,6.029,CST-1368DR,4405,4912,11850,01.104,551
2023-01-27T14:33:32,42.805,6.029,CST-1368DR,4405,4911,11848,01.105,551
2023-01-27T14:36:34,42.805,6.029,CST-1368DR,4405,4912,11850,01.104,551
2023-01-27T14:39:35,42.805,6.029,CST-1368DR,4405,4913,11852,01.103,551
2023-01-27T14:42:37,42.805,6.029,CST-1368DR,4405,4913,11852,01.103,551
2023-01-27T14:45:38,42.805,6.029,CST-1368DR,4405,4912,11849,01.104,551
2023-01-27T14:48:40,42.805,6.029,CST-1368DR,4405,4910,11845,01.106,551
2023-01-27T14:51:42,42.805,6.029,CST-1368DR,4405,4912,11851,01.104,551
2023-01-27T14:54:43,42.805,6.029,CST-1368DR,4405,4912,11849,01.104,551
2023-01-27T14:57:45,42.805,6.029,CST-1368DR,4405,4912,11849,01.104,551
2023-01-27T15:00:46,42.805,6.029,CST-1368DR,4405,4912,11850,01.104,551
2023-01-27T15:03:48,42.805,6.029,CST-1368DR,4405,4912,11850,01.104,551
2023-01-27T15:06:49,42.805,6.029,CST-1368DR,4405,4911,11848,01.105,551
2023-01-27T15:09:51,42.805,6.029,CST-1368DR,4405,4912,11850,01.104,551
2023-01-27T15:12:53,42.805,6.029,CST-1368DR,4405,4912,11851,01.104,551
2023-01-27T15:15:54,42.805,6.029,CST-1368DR,4404,4911,11851,01.104,551
2023-01-27T15:18:56,42.805,6.029,CST-1368DR,4405,4912,11849,01.104,551
2023-01-27T15:21:57,42.805,6.029,CST-1368DR,4405,4909,11844,01.106,551
2023-01-27T15:24:59,42.805,6.029,CST-1368DR,4405,4920,11869,01.097,551
2023-01-27T15:28:01,42.805,6.029,CST-1368DR,4405,4919,11867,01.098,551
2023-01-27T15:31:02,42.805,6.029,CST-1368DR,4405,4919,11868,01.098,551
2023-01-27T15:34:04,42.805,6.029,CST-1368DR,4405,4919,11866,01.098,551
2023-01-27T15:37:05,42.805,6.029,CST-1368DR,4405,4917,11863,01.099,551
2023-01-27T15:40:07,42.805,6.029,CST-1368DR,4405,4918,11864,01.099,551
2023-01-27T15:43:08,42.805,6.029,CST-1368DR,4405,4918,11866,01.098,551
2023-01-27T15:46:10,42.805,6.029,CST-1368DR,4404,4921,11874,01.096,551
2023-01-27T15:49:12,42.805,6.029,CST-1368DR,4404,4918,11867,01.098,551
2023-01-27T15:52:13,42.805,6.029,CST-1368DR,4404,4920,11872,01.096,551
2023-01-27T15:55:15,42.805,6.029,CST-1368DR,4404,4920,11873,01.096,551
2023-01-27T15:58:16,42.805,6.029,CST-1368DR,4404,4921,11875,01.095,551
2023-01-27T16:01:18,42.805,6.029,CST-1368DR,4404,4922,11876,01.095,551
2023-01-27T16:04:20,42.805,6.029,CST-1368DR,4404,4920,11871,01.097,551
2023-01-27T16:07:21,42.805,6.029,CST-1368DR,4404,4921,11875,01.095,551
2023-01-27T16:10:23,42.805,6.029,CST-1368DR,4405,4922,11875,01.095,551
2023-01-27T16:13:24,42.805,6.029,CST-1368DR,4405,4921,11872,01.096,551
2023-01-27T16:16:26,42.805,6.029,CST-1368DR,4405,4921,11872,01.096,551
2023-01-27T16:19:27,42.805,6.029,CST-1368DR,4405,4920,11869,01.097,551
2023-01-27T16:22:29,42.805,6.029,CST-1368DR,4404,4921,11874,01.096,551
2023-01-27T16:25:31,42.805,6.029,CST-1368DR,4404,4920,11872,01.096,551
2023-01-27T16:28:32,42.805,6.029,CST-1368DR,4404,4920,11871,01.097,551
2023-01-27T16:31:34,42.805,6.029,CST-1368DR,4404,4921,11874,01.096,551
2023-01-27T16:34:35,42.805,6.029,CST-1368DR,4404,4918,11867,01.098,551
2023-01-27T16:37:37,42.805,6.029,CST-1368DR,4404,4920,11873,01.096,551